[[{"header":{"parameterUnit":"m.s-1","parameterCategory":1,"la1":30.2991,"la2":30.254,"lo1":-89.0895,"lo2":-89.0444,"dy":0.0017,"dx":0.0017,"nx":28,"ny":28,"refTime":"2023-04-16T21:00:00:Z","depth":0,"parameterNumber":2,"parameterNumberName":"U-component_of_WINDS"},"data":[0,0,0,0,0,0,0,0,0,0,0,0,0,0,0,0,0,0,0,0,0,0,0,0,0,0,0,0,0,0,0,0,0,0,0,0,0,0,0,0,0,0,0,0,0,0,0,0,0,0,0,0,0,0,0,0,0,0,3.6879,3.6879,0,3.6928,3.6928,3.6929,3.6872,3.687,3.6868,3.6866,3.6917,3.6921,3.6924,0,0,0,0,0,0,0,0,0,0,0,0,0,3.6737,3.674,3.6878,3.6879,3.688,3.6928,3.6928,3.6929,3.6872,3.687,3.6867,3.6865,3.6916,3.692,3.6924,0,0,0,0,0,0,0,0,0,0,0,0,0,3.6794,3.6741,3.6878,3.6857,3.6856,3.6928,3.6928,3.6929,3.6873,3.687,3.6866,3.6863,3.6915,3.692,3.6925,3.702,0,0,3.694,3.6942,0,0,0,0,0,0,0,0,3.6791,3.6799,3.686,3.6859,3.6857,3.689,3.6897,3.696,3.6874,3.6866,3.6866,3.6862,3.6911,3.6916,3.6932,3.7023,3.7025,3.6941,3.6944,3.6946,3.6947,0,0,0,0,0,0,0,3.6787,3.6797,3.6898,3.6861,3.6859,3.6846,3.685,3.6909,3.6906,3.6867,3.6863,3.6869,3.691,3.6928,3.6933,3.7026,3.694,3.6945,3.6948,3.695,3.7198,3.7201,0,0,0,0,0,0,3.6785,3.6794,3.6896,3.6899,3.6815,3.6851,3.6856,3.6883,3.6905,3.6906,3.6872,3.6866,3.6921,3.6927,3.6935,3.7049,3.6946,3.6951,3.6953,3.7195,3.7199,3.7203,0,0,0,0,0,0,3.6782,3.6795,3.6894,3.6846,3.6857,3.6857,3.6888,3.6886,3.6904,3.6909,3.6909,3.6891,3.6918,3.6928,3.7,3.705,3.6953,3.6957,3.719,3.7196,3.7201,3.7278,0,0,0,0,0,0,3.6779,3.6794,3.683,3.6847,3.686,3.6958,3.6891,3.6889,3.6912,3.6906,3.6927,3.6927,3.6917,3.6992,3.7005,3.7055,3.6961,3.7186,3.7193,3.7199,3.7271,3.7285,3.7297,0,0,0,0,0,3.6774,3.685,3.6832,3.6845,3.6905,3.6961,3.6969,3.6955,3.6917,3.6953,3.6957,3.6926,3.7043,3.7,3.7014,3.7066,3.7183,3.7191,3.7199,3.7265,3.7282,3.7297,0,0,0,0,0,0,3.6839,3.6851,3.6832,3.6915,3.6938,3.6951,3.6996,3.6973,3.7007,3.6999,3.6981,3.6986,3.7063,3.7072,3.7024,3.7161,3.7106,3.7117,3.7152,3.7169,3.7182,3.7178,3.6966,0,0,0,0,0,3.6863,3.6907,3.6916,3.6988,3.7,3.6997,3.7021,3.7008,3.7031,3.704,3.7049,3.7072,3.7114,3.7142,3.718,3.7272,3.7276,3.7315,3.7328,3.7339,3.7349,3.7399,3.7416,3.7229,3.7229,3.7229,0,0,3.6913,3.6925,3.6954,3.7002,3.7017,3.7064,3.7005,3.7057,3.7092,3.7048,3.7116,3.7124,3.7149,3.7231,3.7268,3.7241,3.7402,3.7349,3.7358,3.7362,3.7409,3.7427,3.7442,3.7234,3.7233,3.7233,0,0,3.7028,3.7041,3.7104,3.7121,3.7145,3.7143,3.7158,3.7176,3.7179,3.7247,3.7216,3.7257,3.7329,3.7349,3.7368,3.7493,3.7466,3.7506,3.7575,3.7624,3.7639,3.7652,3.7697,3.7714,3.7516,3.7516,3.7516,0,3.7087,3.7156,3.7139,3.7193,3.7216,3.7178,3.7242,3.726,3.7296,3.7313,3.7282,3.7373,3.7387,3.7474,3.7504,3.7521,3.7538,3.7503,3.7638,3.7651,3.7663,3.7706,3.7723,3.752,3.752,3.7519,3.7519,0,3.7228,3.7276,3.7324,3.736,3.7388,3.7447,3.744,3.747,3.7456,3.7457,3.7528,3.7544,3.7585,3.7605,3.7591,3.7691,3.7673,3.7641,3.7586,3.7686,3.7726,3.7742,3.7527,3.7525,3.7524,3.7523,0,0,3.7384,3.7411,3.7429,3.7445,3.747,3.7508,3.7566,3.7606,3.7633,3.766,3.7709,3.7771,3.7742,3.7764,3.7752,3.7796,3.7894,3.7758,3.7758,3.7783,3.8006,3.8031,3.805,3.7877,3.788,3.7883,3.8004,0,3.75,3.76,3.7587,3.7683,3.7728,3.7694,3.7745,3.7766,3.7769,3.7809,3.7812,3.7857,3.7814,3.7827,3.7868,3.7874,3.7939,3.7865,3.7923,3.7926,3.7918,3.8071,3.8097,3.8211,3.802,3.8023,3.8024,0,3.7648,3.7681,3.7781,3.78,3.7819,3.7865,3.7902,3.794,3.7964,3.7963,3.7988,3.7969,3.8029,3.7973,3.8055,3.8005,3.8028,3.8034,3.8039,3.8044,3.7981,3.8081,3.8246,3.8264,3.8049,3.8047,3.8045,0,3.7754,3.7822,3.7891,3.7906,3.793,3.7964,3.7975,3.7996,3.8022,3.8055,3.8071,3.8111,3.8132,3.8164,3.8156,3.8116,3.8241,3.8184,3.8242,3.8243,3.827,3.8268,3.8443,3.8285,3.8285,3.8284,3.8284,0,3.7885,3.7948,3.7939,3.7982,3.8052,3.8037,3.8107,3.8115,3.8134,3.8178,3.8151,3.8193,3.8181,3.8223,3.8218,3.8287,3.8297,3.8299,3.8296,3.8301,3.8301,3.8316,3.8308,3.8289,3.8288,3.8287,3.8286,0,3.8014,3.801,3.8084,3.8101,3.8106,3.8158,3.8172,3.8213,3.8214,3.8271,3.8283,3.8285,3.8333,3.8329,3.8383,3.838,3.8466,3.8454,3.8458,3.8455,3.8514,3.8509,3.8704,3.8729,3.8555,3.8557,3.8558,0,3.8097,3.8145,3.8168,3.8195,3.8209,3.8254,3.828,3.8268,3.8297,3.8329,3.8366,3.8412,3.8448,3.8527,3.8534,3.8575,3.8565,3.863,3.8571,3.8574,3.8566,3.8564,3.8569,3.8642,3.8644,3.8646,3.8647,0,3.8247,3.8243,3.8282,3.8321,3.8353,3.8383,3.841,3.8435,3.8426,3.846,3.8508,3.8537,3.8592,3.8638,3.8678,3.8691,3.8668,3.8666,3.8682,3.8687,3.8687,3.8689,3.849,3.8661,3.866,3.8659,3.8658,3.8657,3.8356,3.8398,3.842,3.8465,3.8484,3.851,3.855,3.8556,3.8597,3.8641,3.8632,3.8687,3.8711,3.8763,3.878,3.8823,3.88,3.8822,3.8828,3.8834,3.8841,3.868,3.8831,3.883,3.883,3.8829,3.8829,0,3.8505,3.8518,3.8559,3.8598,3.8634,3.8609,3.8638,3.867,3.8719,3.8743,3.8779,3.8836,3.8881,3.8892,3.8935,3.8969,3.8959,3.898,3.8978,3.8982,3.8859,3.8842,3.8987,3.8987,3.8987,3.8987,3.8987,3.8987,3.8587,3.8655,3.8655,3.8734,3.8746,3.88,3.8819,3.8844,3.8863,3.8928,3.8965,3.8972,3.8991,3.9036,3.9077,3.9079,3.9096,3.9122,3.912,3.9006,3.899,3.8975,3.8958,3.9126,3.9126,3.9238,3.9239,3.924]},{"header":{"parameterUnit":"m.s-1","parameterCategory":1,"la1":30.2991,"la2":30.254,"lo1":-89.0895,"lo2":-89.0444,"dy":0.0017,"dx":0.0017,"nx":28,"ny":28,"refTime":"2023-04-16T21:00:00:Z","depth":0,"parameterNumber":3,"parameterNumberName":"V-component_of_WINDS"},"data":[0,0,0,0,0,0,0,0,0,0,0,0,0,0,0,0,0,0,0,0,0,0,0,0,0,0,0,0,0,0,0,0,0,0,0,0,0,0,0,0,0,0,0,0,0,0,0,0,0,0,0,0,0,0,0,0,0,0,-4.8334,-4.8335,0,-4.8455,-4.8457,-4.8458,-4.8427,-4.8424,-4.8422,-4.842,-4.8545,-4.855,-4.8556,0,0,0,0,0,0,0,0,0,0,0,0,0,-4.8074,-4.8079,-4.8334,-4.8335,-4.8337,-4.8455,-4.8457,-4.8459,-4.8427,-4.8424,-4.8421,-4.8418,-4.8543,-4.8549,-4.8556,0,0,0,0,0,0,0,0,0,0,0,0,0,-4.8191,-4.8081,-4.8333,-4.8335,-4.8337,-4.8455,-4.8457,-4.8459,-4.8428,-4.8424,-4.842,-4.8417,-4.8541,-4.8549,-4.8557,-4.8681,0,0,-4.8582,-4.8586,0,0,0,0,0,0,0,0,-4.8184,-4.82,-4.8333,-4.8335,-4.8337,-4.8422,-4.8411,-4.8533,-4.8429,-4.8393,-4.842,-4.8415,-4.8507,-4.8518,-4.8549,-4.8687,-4.8692,-4.8583,-4.8588,-4.8592,-4.8594,0,0,0,0,0,0,0,-4.8176,-4.8195,-4.8382,-4.8335,-4.8338,-4.833,-4.8343,-4.8434,-4.8469,-4.8396,-4.8394,-4.8409,-4.8507,-4.8541,-4.8551,-4.8694,-4.8583,-4.859,-4.8596,-4.8599,-4.8941,-4.8945,0,0,0,0,0,0,-4.8167,-4.8188,-4.8378,-4.8385,-4.825,-4.8338,-4.8352,-4.8399,-4.8468,-4.8475,-4.8412,-4.8407,-4.8528,-4.8541,-4.8555,-4.8706,-4.8592,-4.86,-4.8604,-4.8937,-4.8942,-4.8946,0,0,0,0,0,0,-4.8161,-4.8184,-4.8373,-4.8286,-4.831,-4.8346,-4.8399,-4.8403,-4.8436,-4.848,-4.8486,-4.844,-4.8526,-4.8544,-4.865,-4.871,-4.8603,-4.8611,-4.8932,-4.8938,-4.8944,-4.9007,0,0,0,0,0,0,-4.8154,-4.8182,-4.8229,-4.8288,-4.8315,-4.8466,-4.8402,-4.8408,-4.8451,-4.8445,-4.8507,-4.8514,-4.8524,-4.8638,-4.8658,-4.8719,-4.8618,-4.8927,-4.8935,-4.8942,-4.9,-4.9015,-4.9027,0,0,0,0,0,-4.8145,-4.8242,-4.8232,-4.8255,-4.8375,-4.8469,-4.8485,-4.8494,-4.8456,-4.8504,-4.8532,-4.8512,-4.87,-4.8649,-4.8672,-4.8736,-4.8923,-4.8933,-4.8941,-4.8994,-4.9012,-4.9027,0,0,0,0,0,0,-4.819,-4.825,-4.8239,-4.8358,-4.8409,-4.8464,-4.8524,-4.8513,-4.8576,-4.8568,-4.8577,-4.8592,-4.8701,-4.8729,-4.8671,-4.886,-4.8806,-4.882,-4.8838,-4.8855,-4.8869,-4.886,-4.8625,0,0,0,0,0,-4.8214,-4.8285,-4.8334,-4.8434,-4.846,-4.8488,-4.853,-4.8533,-4.8586,-4.8607,-4.8642,-4.8695,-4.8765,-4.8812,-4.8879,-4.9004,-4.9017,-4.9059,-4.9073,-4.9084,-4.9096,-4.9165,-4.9184,-4.8976,-4.8976,-4.8976,0,0,-4.8264,-4.8305,-4.835,-4.8445,-4.8484,-4.8558,-4.8506,-4.8587,-4.8642,-4.8619,-4.8722,-4.875,-4.8809,-4.8925,-4.8978,-4.8952,-4.9156,-4.9095,-4.9104,-4.911,-4.9176,-4.9196,-4.9213,-4.8982,-4.8981,-4.898,0,0,-4.8393,-4.8431,-4.8519,-4.856,-4.8621,-4.8639,-4.866,-4.8717,-4.8735,-4.8838,-4.8822,-4.8888,-4.901,-4.9053,-4.909,-4.9236,-4.9221,-4.9258,-4.9329,-4.9396,-4.9413,-4.9427,-4.948,-4.9498,-4.927,-4.927,-4.927,0,-4.8447,-4.8558,-4.8566,-4.8649,-4.8691,-4.8674,-4.8763,-4.8803,-4.8882,-4.8912,-4.8882,-4.9034,-4.9072,-4.9199,-4.9234,-4.9265,-4.929,-4.9251,-4.9409,-4.9424,-4.9438,-4.9488,-4.9508,-4.9274,-4.9274,-4.9273,-4.9273,0,-4.8623,-4.87,-4.8764,-4.8842,-4.8891,-4.8977,-4.8998,-4.9047,-4.9046,-4.9068,-4.9173,-4.9219,-4.9295,-4.9325,-4.9325,-4.9452,-4.9434,-4.9407,-4.9352,-4.9462,-4.9509,-4.9529,-4.928,-4.9279,-4.9277,-4.9276,0,0,-4.8784,-4.8865,-4.8888,-4.8923,-4.8989,-4.9049,-4.9134,-4.9209,-4.9252,-4.9307,-4.9379,-4.9483,-4.9458,-4.9501,-4.9505,-4.9563,-4.9677,-4.9529,-4.953,-4.9555,-4.982,-4.9841,-4.9863,-4.9667,-4.9671,-4.9674,-4.9816,0,-4.8919,-4.9069,-4.9079,-4.9214,-4.9286,-4.9271,-4.9345,-4.9394,-4.9416,-4.948,-4.9505,-4.9578,-4.954,-4.9565,-4.9623,-4.9651,-4.973,-4.9641,-4.9734,-4.9738,-4.9721,-4.9888,-4.991,-5.0042,-4.9834,-4.9837,-4.984,0,-4.9097,-4.9158,-4.9301,-4.9357,-4.9388,-4.9454,-4.9524,-4.9586,-4.9641,-4.9653,-4.9701,-4.9697,-4.9785,-4.9727,-4.9848,-4.9787,-4.9826,-4.9846,-4.9851,-4.9861,-4.9796,-4.9902,-5.0084,-5.0104,-4.9869,-4.9867,-4.9864,0,-4.9201,-4.9319,-4.942,-4.945,-4.9518,-4.9565,-4.9596,-4.9647,-4.9692,-4.9753,-4.9782,-4.9852,-4.9891,-4.9946,-4.9961,-4.9918,-5.0083,-5.0026,-5.0095,-5.0095,-5.0131,-5.0129,-5.0322,-5.0155,-5.0155,-5.0155,-5.0154,0,-4.9351,-4.944,-4.9467,-4.953,-4.9628,-4.9639,-4.9736,-4.9763,-4.9809,-4.9877,-4.9868,-4.9931,-4.9947,-5.0014,-5.0027,-5.0126,-5.0143,-5.0156,-5.0158,-5.0157,-5.0155,-5.0183,-5.0174,-5.016,-5.0159,-5.0158,-5.0157,0,-4.9484,-4.9506,-4.9615,-4.9671,-4.9687,-4.9757,-4.9804,-4.9864,-4.9885,-4.9971,-4.9992,-5.0025,-5.0103,-5.0124,-5.0217,-5.0225,-5.0342,-5.0336,-5.0324,-5.0324,-5.0392,-5.0386,-5.061,-5.0641,-5.0454,-5.0455,-5.0457,0,-4.9579,-4.9646,-4.9709,-4.9754,-4.9786,-4.9858,-4.9903,-4.9917,-4.9965,-5.0033,-5.0085,-5.0161,-5.0224,-5.0349,-5.0382,-5.0453,-5.0449,-5.0523,-5.046,-5.0457,-5.0451,-5.0447,-5.0454,-5.0535,-5.0537,-5.0538,-5.054,0,-4.9745,-4.9753,-4.9819,-4.9889,-4.9944,-5.0,-5.0053,-5.009,-5.0111,-5.0165,-5.0245,-5.0294,-5.0389,-5.0466,-5.0538,-5.057,-5.0559,-5.0559,-5.0579,-5.0579,-5.057,-5.0576,-5.0357,-5.0554,-5.0553,-5.0552,-5.0551,-5.055,-4.9862,-4.9922,-4.9975,-5.0049,-5.0091,-5.0141,-5.0201,-5.0229,-5.0296,-5.0375,-5.0378,-5.0465,-5.0519,-5.0615,-5.0651,-5.0719,-5.0697,-5.0726,-5.0733,-5.074,-5.0746,-5.0558,-5.0732,-5.0732,-5.0731,-5.0731,-5.0731,0,-5.0028,-5.0062,-5.013,-5.0205,-5.0264,-5.0248,-5.0307,-5.0357,-5.0433,-5.0484,-5.0546,-5.0638,-5.0712,-5.0751,-5.0825,-5.0872,-5.0869,-5.0891,-5.0888,-5.0896,-5.0762,-5.0737,-5.0893,-5.0893,-5.0893,-5.0893,-5.0893,-5.0892,-5.0121,-5.0221,-5.0236,-5.0356,-5.0389,-5.0475,-5.051,-5.0556,-5.0597,-5.07,-5.0762,-5.0787,-5.0833,-5.0911,-5.0978,-5.0988,-5.1016,-5.1041,-5.1048,-5.0922,-5.0905,-5.0889,-5.0867,-5.1047,-5.1047,-5.1176,-5.1177,-5.1178]}]]